This is the latest recevied weather packets stored in our database for station/object AA0PB. If no packets are shown the sender has not sent any weather packets the latest 10 day(s).
| Time | Temp. | Humidity | Pressure | Rain* | Wind** | Luminosity | Snow |
|---|---|---|---|---|---|---|---|
| 1777534613 | 12.78° C | 78% | 1020 hPa | 0 mm | - | 0 W/m² | - |
| 1777534310 | 12.78° C | 76% | 1020.4 hPa | 0 mm | - | 0 W/m² | - |
| 1777534008 | 13.33° C | 75% | 1020.1 hPa | 0 mm | - | 0 W/m² | - |
| 1777533705 | 13.89° C | 74% | 1020.1 hPa | 0 mm | - | 0 W/m² | - |
| 1777533401 | 13.33° C | 75% | 1020.2 hPa | 0 mm | - | 0 W/m² | - |
| 1777533097 | 13.89° C | 73% | 1020.1 hPa | 0 mm | - | 0 W/m² | - |
| 1777532795 | 13.89° C | 74% | 1020.3 hPa | 0 mm | - | 0 W/m² | - |
| 1777532491 | 13.33° C | 75% | 1020.3 hPa | 0 mm | - | 0 W/m² | - |
| 1777532188 | 13.89° C | 74% | 1020.4 hPa | 0 mm | - | 0 W/m² | - |
| 1777531884 | 13.89° C | 74% | 1020.4 hPa | 0 mm | - | 0 W/m² | - |
| 1777531580 | 13.89° C | 74% | 1020.3 hPa | 0 mm | - | 0 W/m² | - |
| 1777531278 | 13.89° C | 74% | 1020.2 hPa | 0 mm | - | 0 W/m² | - |
| 1777530975 | 13.89° C | 74% | 1020.2 hPa | 0 mm | - | 0 W/m² | - |
| 1777530672 | 13.89° C | 74% | 1020.3 hPa | 0 mm | - | 0 W/m² | - |
| 1777530370 | 13.89° C | 73% | 1020.1 hPa | 0 mm | - | 0 W/m² | - |
| 1777530065 | 13.89° C | 73% | 1020.2 hPa | 0 mm | - | 0 W/m² | - |
| 1777529763 | 13.89° C | 73% | 1020.6 hPa | 0 mm | - | 0 W/m² | - |
| 1777529459 | 13.89° C | 73% | 1020.3 hPa | 0 mm | - | 0 W/m² | - |
| 1777529156 | 14.44° C | 71% | 1020.4 hPa | 0 mm | - | 0 W/m² | - |
| 1777528852 | 13.89° C | 72% | 1020.5 hPa | 0 mm | - | 0 W/m² | - |
| 1777528549 | 13.33° C | 74% | 1020.5 hPa | 0 mm | - | 0 W/m² | - |
| 1777528247 | 13.33° C | 75% | 1020.5 hPa | 0 mm | - | 0 W/m² | - |
| 1777527944 | 13.33° C | 74% | 1020.4 hPa | 0 mm | - | 0 W/m² | - |
| 1777527640 | 13.89° C | 74% | 1020.6 hPa | 0 mm | - | 0 W/m² | - |
| 1777527335 | 13.89° C | 74% | 1020.6 hPa | 0 mm | - | 0 W/m² | - |
* Rain latest hour (hover to see other rain measurements)
** Current wind speed in m/s (hover to see current wind gust speed)